Weather History for LHSN - November, 2013

Change the Weather History Date:

Tuesday, November 19, 2013

  Actual Average (LHBP) Record (LHBP)
Temperature  
Mean Temperature 43 °F -  
Max Temperature 51 °F 44 °F 60 °F (2002)
Min Temperature 35 °F 32 °F 23 °F (1997)
Degree Days  
Heating Degree Days 22    
Moisture  
Dew Point 39 °F    
Average Humidity 94    
Maximum Humidity 100    
Minimum Humidity 71    
Precipitation  
Precipitation 0.00 in - - ()
Sea Level Pressure  
Sea Level Pressure 29.95 in    
Wind  
Wind Speed 8 mph ()    
Max Wind Speed 11 mph    
Max Gust Speed -    
Visibility 1.7 miles    
Events Fog , Rain    
Averages and records for this station are not official NWS values.
T = Trace of Precipitation, MM = Missing Value Source: Averaged Metar Reports

Daily Weather History Graph

Daily Weather History Graph

Search for Another Location

Airport or City:

Trip Planner

Search our weather history database for the weather conditions in past years. The results will help you decide how hot, cold, wet, or windy it might be!

Date:

Astronomy

Nov. 19, 2013 Rise Set
Actual Time 6:48 AM CET 3:59 PM CET
Civil Twilight 6:14 AM CET 4:33 PM CET
Nautical Twilight 5:37 AM CET 5:10 PM CET
Astronomical Twilight 5:01 AM CET 5:47 PM CET
Moon 5:34 PM CET (11/19) 8:14 AM CET (11/19)
Length of Visible Light 10h 18m
Length of Day
9h 11m
Full, 97% of the Moon is Illuminated
Nov 19
Full
Nov 25
Last Quarter
Dec 3
New
Dec 9
First Quarter
Dec 17
Full

Hourly Weather History & Observations

Time (CET) Temp. Windchill Dew Point Humidity Pressure Visibility Wind Dir Wind Speed Gust Speed Precip Events Conditions
12:15 AM 39.2 °F 33.1 °F 37.4 °F 93% 30.09 in 0.1 mi East 8.9 mph - N/A Fog Fog
12:45 AM 37.4 °F 30.9 °F 37.4 °F 100% 30.06 in 0.1 mi East 8.9 mph - N/A Fog Fog
1:15 AM 37.4 °F 30.9 °F 37.4 °F 100% 30.06 in 0.1 mi East 8.9 mph - N/A Fog Fog
1:45 AM 37.4 °F 30.9 °F 37.4 °F 100% 30.06 in 0.1 mi East 8.9 mph - N/A Fog Fog
2:15 AM 35.6 °F 28.7 °F 35.6 °F 100% 30.06 in 0.1 mi East 8.9 mph - N/A Fog Light Drizzle
2:45 AM 35.6 °F 30.0 °F 35.6 °F 100% 30.06 in 0.1 mi East 6.7 mph - N/A Fog Fog
3:15 AM 37.4 °F 30.9 °F 35.6 °F 93% 30.06 in 0.1 mi East 8.9 mph - N/A Fog Light Drizzle
3:45 AM 37.4 °F 30.9 °F 35.6 °F 93% 30.06 in 0.1 mi ENE 8.9 mph - N/A Fog Light Drizzle
4:15 AM 35.6 °F 28.7 °F 35.6 °F 100% 30.04 in 0.1 mi East 8.9 mph - N/A Fog Light Drizzle
4:45 AM 37.4 °F 30.9 °F 37.4 °F 100% 30.04 in 0.1 mi East 8.9 mph - N/A Fog Light Drizzle
5:15 AM 35.6 °F 28.7 °F 35.6 °F 100% 30.04 in 0.1 mi East 8.9 mph - N/A Fog Light Drizzle
5:45 AM - - - N/A% - 0.1 mi East 8.9 mph - N/A Fog Light Fog
6:15 AM 35.6 °F 28.7 °F 35.6 °F 100% 30.04 in 0.1 mi East 8.9 mph - N/A Fog Fog
6:45 AM 35.6 °F 28.7 °F 35.6 °F 100% 30.01 in 0.1 mi ENE 8.9 mph - N/A Fog Fog
7:15 AM 35.6 °F 28.7 °F 35.6 °F 100% 30.04 in 0.1 mi ENE 8.9 mph - N/A Fog Fog
7:45 AM 35.6 °F 28.7 °F 35.6 °F 100% 30.04 in 0.1 mi East 8.9 mph - N/A Fog Fog
8:15 AM 35.6 °F 28.7 °F 35.6 °F 100% 30.04 in 0.1 mi ENE 8.9 mph - N/A Fog Fog
8:45 AM - - - N/A% - 1.9 mi East 8.9 mph - N/A   Mostly Cloudy
9:15 AM 37.4 °F 30.9 °F 37.4 °F 100% 30.01 in 0.4 mi East 8.9 mph - N/A Fog Fog
9:32 AM 37.4 °F 30.9 °F 37.4 °F 100% 30.01 in 0.5 mi East 8.9 mph - N/A Fog Fog
9:41 AM 37.4 °F 30.9 °F 37.4 °F 100% 30.01 in 0.6 mi East 8.9 mph - N/A   Mostly Cloudy
9:45 AM 39.2 °F 33.1 °F 39.2 °F 100% 30.01 in 0.7 mi ENE 8.9 mph - N/A   Scattered Clouds
10:15 AM 39.2 °F 33.1 °F 39.2 °F 100% 30.01 in 0.9 mi East 8.9 mph - N/A   Scattered Clouds
10:45 AM 39.2 °F 33.1 °F 39.2 °F 100% 29.98 in 1.2 mi East 8.9 mph - N/A   Scattered Clouds
11:15 AM 41.0 °F 35.4 °F 41.0 °F 100% 29.98 in 1.9 mi East 8.9 mph - N/A   Scattered Clouds
11:45 AM 44.6 °F 38.9 °F 42.8 °F 93% 29.95 in 3.1 mi ENE 11.2 mph - N/A   Scattered Clouds
12:15 PM 44.6 °F 38.9 °F 42.8 °F 93% 29.95 in 3.7 mi ENE 11.2 mph - N/A   Unknown
12:45 PM 48.2 °F - 42.8 °F 82% 29.95 in 5.0 mi East 8.9 mph - N/A   Unknown
1:15 PM 50.0 °F - 42.8 °F 76% 29.92 in - ESE 11.2 mph - N/A   Clear
1:45 PM 50.0 °F - 44.6 °F 82% 29.92 in - East 8.9 mph - N/A   Clear
2:15 PM 51.8 °F - 44.6 °F 76% 29.89 in - East 6.7 mph - N/A   Clear
2:45 PM - - - N/A% - 3.7 mi East 8.9 mph - N/A Rain Light Rain Showers
3:15 PM 51.8 °F - 42.8 °F 71% 29.89 in - East 6.7 mph - N/A   Clear
3:45 PM 48.2 °F - 42.8 °F 82% 29.89 in - East 6.7 mph - N/A   Clear
4:15 PM 46.4 °F 42.0 °F 42.8 °F 87% 29.86 in - East 8.9 mph - N/A   Clear
4:45 PM 44.6 °F 39.8 °F 42.8 °F 93% 29.86 in 3.7 mi ENE 8.9 mph - N/A   Unknown
5:00 PM - - - N/A% - 1.9 mi East 8.9 mph - N/A Rain Light Rain Showers
5:15 PM 42.8 °F 37.6 °F 42.8 °F 100% 29.86 in 3.7 mi ENE 8.9 mph - N/A   Unknown
5:40 PM 42.8 °F 38.7 °F 41.0 °F 93% 29.86 in 3.1 mi ENE 6.7 mph - N/A   Mostly Cloudy
5:45 PM - - - N/A% - 1.9 mi East 8.9 mph - N/A Rain Light Rain Showers
6:15 PM 42.8 °F 37.6 °F 41.0 °F 93% 29.86 in 3.1 mi ENE 8.9 mph - N/A   Mostly Cloudy
6:45 PM 41.0 °F 35.4 °F 41.0 °F 100% 29.86 in 3.1 mi ENE 8.9 mph - N/A   Mostly Cloudy
7:15 PM 42.8 °F 37.6 °F 41.0 °F 93% 29.83 in 3.1 mi ENE 8.9 mph - N/A   Mostly Cloudy
7:45 PM 41.0 °F 35.4 °F 41.0 °F 100% 29.83 in 3.1 mi ENE 8.9 mph - N/A   Mostly Cloudy
8:15 PM 41.0 °F 36.5 °F 39.2 °F 93% 29.83 in 3.1 mi ENE 6.7 mph - N/A   Mostly Cloudy
8:45 PM - - - N/A% - 1.9 mi ENE 8.9 mph - N/A Rain Light Rain Showers
9:15 PM 41.0 °F 34.4 °F 39.2 °F 93% 29.80 in 3.7 mi ENE 11.2 mph - N/A   Unknown
9:45 PM 41.0 °F 35.4 °F 39.2 °F 93% 29.77 in 3.7 mi ENE 8.9 mph - N/A   Unknown
10:15 PM 41.0 °F 36.5 °F 39.2 °F 93% 29.80 in 3.7 mi East 6.7 mph - N/A   Unknown
10:45 PM 41.0 °F 36.5 °F 39.2 °F 93% 29.77 in 3.7 mi ENE 6.7 mph - N/A   Unknown
11:15 PM 41.0 °F 36.5 °F 39.2 °F 93% 29.77 in 3.7 mi ENE 6.7 mph - N/A   Unknown
11:45 PM - - - N/A% - 1.9 mi North - - N/A Rain Light Rain Showers